Showing default

OPS 3367 B, 735

Orbit data source: Space-Track

OPS 3367 B, 735 is an American payload satellite in SSO that was launched on Sun, 19 Jan 1964 UTC via a THOR SLV-2 AGENA D launch vehicle from the Air Force Western Test Range (AFWTR). Payload-class satellites include a variety of spacecraft equipped with specific instruments for various scientific and technological missions. These include communications satellites like Starlink; space stations such as the ISS; scientific satellites like the Hubble; Earth observation satellites from companies like Planet Labs, Umbra, and HawkEye 360; GPS; miniature CubeSats for education and research; and military/defense satellites.

Loading next visibility...
Identifier
735, 1964-002C
Orbit
SSO
Country
Flag of USUS
Related business
Manufacturer
RCA/East Windsor
Mission
Spacecraft
Bus & Motor
P35, Unknown motor
Mass
50 kg wet, 50 kg dry
Launch date (UTC)
1964-01-19 (62 years ago)
Launch vehicle
THOR SLV-2 AGENA D
Launch site
Air Force Western Test Range (AFWTR)
Object type
Payload
Rocket body
Debris
Shape & HBR
Unknown
Radar Cross Section
Medium (>0.1 m² and <1 m²)

Expand to show TLE details & history
Last TLE update: 14 hours ago

TLE from 14 hours ago
0 OPS 3367 B
1 00735U 64002C   26034.34677556  .00000144  00000-0  76082-4 0  9991
2 00735  98.9819 315.1777 0016106 338.1493  21.8998 14.28542932227601
Epoch: 2026-02-03T08:19Z
TLE epoch observation values (Epoch: 2026-02-03T08:19:21.408Z)
Latitude
-0.00009°
Longitude
56.80949°
Altitude
788.801 km
Speed
7.465 km/s
True Right ascension
21h 00m 42s
True Declination
0° 00' 00"
Sunlit
Object was in daylight at epoch
Visualization orbit readout
Latitude
Unknown
Longitude
Unknown
Altitude
Unknown
Speed
Unknown
Apparent Right ascension
Unknown
Apparent Declination
Unknown
Sunlit
N/A
Visualization observer readout
Local Sidereal Time
00:19:32
Azimuth
Unknown
Elevation
Unknown
Doppler factor
Unknown
Orbital elements
Apogee altitude
805.317 km
Perigee altitude
782.215 km
Semi-major axis
7,171.903 km
Eccentricity
0.00161
Inclination
98.9819°
RAAN
315.1777°
Arg. of periapsis
338.1493°
True anomaly
21.96877°
Mean anomaly
21.8998°
Eccentric anomaly
21.93427°
Mean motion
3.57348 °/min
Orbital period
100.74 mins
BSTAR
0.000076082
Loading maneuver chart data...
Computing Atmospheric mass density...
Loading historical data...
Loading historical data...
Loading historical data...
Loading historical data...
Loading historical data...
Loading historical data...
Loading historical data...
Other satellites on launch #2 in the year 1964 (1964-01-19 UTC)

Documentation

Showing up to 5 results
|